Simultaneous Nadir Overpasses (SNOs) Predictions

Prediction of SNOs between GOES-15 and METOP-C Satellite Orbit:

Table of predicted SNOs for the next 14.0 days since TLE Epoch: 6/17/2023
Index Date Time (GOES-15) GOES-15 Lat,Lon METOP-C Lat,Lon Distance(km) Time Diff (sec)
1 06/17/2023 07:58:34 0.26,-162.02 1.21,-157.64 498.12 80
2 06/18/2023 20:17:27 -0.24,-162.63 -0.34,-162.23 45.36 80
3 06/20/2023 08:39:10 0.22,-163.22 -0.58,-166.86 414.95 80
4 06/21/2023 08:15:53 0.25,-163.60 0.65,-161.89 195.26 80
5 06/22/2023 20:37:25 -0.22,-164.21 0.28,-166.47 258.07 80
6 06/23/2023 20:14:08 -0.25,-164.59 -0.94,-161.51 351.96 80
7 06/25/2023 08:35:50 0.22,-165.17 -0.01,-166.12 108.82 80
8 06/27/2023 20:31:25 -0.22,-166.15 -0.29,-165.74 46.60 80
9 06/29/2023 08:53:07 0.19,-166.72 -0.63,-170.36 415.02 80
10 06/30/2023 08:29:50 0.22,-167.09 0.61,-165.39 193.76 80
